| time (UTC) | temp F | wind direction | speed MPH | gust MPH | rain 1hr in | rain 24hr in | rain mn in | humidity % | barometer mb |
| 20260508130905 | 56 | 129 | 0.0 | 1.0 | 0.00 | 0.00 | 0.00 | 47 | 1015.3 |
| 20260508130406 | 56 | 128 | 0.0 | 0.0 | 0.00 | 0.00 | 0.00 | 48 | 1015.3 |
| 20260508130124 | 55 | 123 | 0.0 | 2.0 | 0.00 | 0.00 | 0.00 | 49 | 1015.2 |
| 20260508125406 | 55 | 123 | 0.0 | 2.0 | 0.00 | 0.00 | 0.00 | 49 | 1015.4 |
| 20260508124906 | 54 | 123 | 0.0 | 4.0 | 0.00 | 0.00 | 0.00 | 49 | 1015.3 |
| 20260508124406 | 54 | 123 | 1.0 | 4.0 | 0.00 | 0.00 | 0.00 | 49 | 1015.2 |
| 20260508123905 | 54 | 123 | 2.0 | 4.0 | 0.00 | 0.00 | 0.00 | 49 | 1015.3 |
| 20260508123405 | 54 | 121 | 2.0 | 4.0 | 0.00 | 0.00 | 0.00 | 49 | 1015.2 |
| 20260508122906 | 55 | 118 | 3.0 | 6.0 | 0.00 | 0.00 | 0.00 | 48 | 1015.1 |
| 20260508122406 | 55 | 128 | 2.0 | 6.0 | 0.00 | 0.00 | 0.00 | 47 | 1015.0 |
| 20260508121906 | 55 | 113 | 1.0 | 3.0 | 0.00 | 0.00 | 0.00 | 46 | 1014.9 |
| 20260508121406 | 55 | 58 | 0.0 | 2.0 | 0.00 | 0.00 | 0.00 | 46 | 1014.7 |
| 20260508120905 | 55 | 57 | 0.0 | 0.0 | 0.00 | 0.00 | 0.00 | 46 | 1014.7 |
| 20260508120412 | 55 | 57 | 0.0 | 2.0 | 0.00 | 0.00 | 0.00 | 45 | 1014.6 |
| 20260508115907 | 56 | 57 | 0.0 | 2.0 | 0.00 | 0.00 | 0.00 | 45 | 1014.6 |
| 20260508115406 | 55 | 57 | 0.0 | 2.0 | 0.00 | 0.00 | 0.00 | 45 | 1014.6 |
| 20260508114906 | 55 | 57 | 0.0 | 0.0 | 0.00 | 0.00 | 0.00 | 45 | 1014.6 |
| 20260508114407 | 56 | 57 | 0.0 | 0.0 | 0.00 | 0.00 | 0.00 | 45 | 1014.6 |
| 20260508113906 | 56 | 57 | 0.0 | 2.0 | 0.00 | 0.00 | 0.00 | 44 | 1014.6 |
| 20260508113406 | 56 | 57 | 0.0 | 2.0 | 0.00 | 0.00 | 0.00 | 44 | 1014.6 |
| 20260508112907 | 56 | 57 | 0.0 | 2.0 | 0.00 | 0.00 | 0.00 | 44 | 1014.7 |
| 20260508112407 | 56 | 57 | 0.0 | 0.0 | 0.00 | 0.00 | 0.00 | 44 | 1014.7 |
| 20260508112133 | 56 | 57 | 0.0 | 0.0 | 0.00 | 0.00 | 0.00 | 43 | 1014.7 |
| 20260508111419 | 56 | 57 | 0.0 | 2.0 | 0.00 | 0.00 | 0.00 | 43 | 1014.9 |
| 20260508111351 | 57 | 57 | 0.0 | 2.0 | 0.00 | 0.00 | 0.00 | 43 | 1014.9 |
| 20260508110405 | 57 | 57 | 0.0 | 2.0 | 0.00 | 0.00 | 0.00 | 43 | 1014.7 |
| 20260508105903 | 57 | 57 | 0.0 | 2.0 | 0.00 | 0.00 | 0.00 | 42 | 1014.9 |
| 20260508105402 | 57 | 57 | 0.0 | 2.0 | 0.00 | 0.00 | 0.00 | 43 | 1014.9 |
| 20260508104903 | 57 | 57 | 1.0 | 4.0 | 0.00 | 0.00 | 0.00 | 42 | 1014.9 |
| 20260508104403 | 57 | 59 | 1.0 | 4.0 | 0.00 | 0.00 | 0.00 | 42 | 1014.9 |
| 20260508103903 | 58 | 26 | 1.0 | 3.0 | 0.00 | 0.00 | 0.00 | 41 | 1014.9 |
| 20260508103403 | 58 | 41 | 2.0 | 4.0 | 0.00 | 0.00 | 0.00 | 41 | 1014.7 |
| 20260508102903 | 58 | 41 | 3.0 | 6.0 | 0.00 | 0.00 | 0.00 | 41 | 1014.7 |
| 20260508102403 | 58 | 55 | 3.0 | 6.0 | 0.00 | 0.00 | 0.00 | 41 | 1014.7 |
| 20260508101903 | 58 | 44 | 3.0 | 5.0 | 0.00 | 0.00 | 0.00 | 41 | 1014.6 |
| 20260508101404 | 58 | 47 | 3.0 | 5.0 | 0.00 | 0.00 | 0.00 | 42 | 1014.7 |
| 20260508101123 | 58 | 57 | 4.0 | 7.0 | 0.00 | 0.00 | 0.00 | 43 | 1014.6 |
| 20260508100402 | 59 | 67 | 3.0 | 7.0 | 0.00 | 0.00 | 0.00 | 43 | 1014.6 |
| 20260508095903 | 59 | 69 | 1.0 | 5.0 | 0.00 | 0.00 | 0.00 | 45 | 1014.6 |
| 20260508095403 | 59 | 49 | 1.0 | 2.0 | 0.00 | 0.00 | 0.00 | 44 | 1014.4 |
| 20260508094902 | 59 | 49 | 1.0 | 2.0 | 0.00 | 0.00 | 0.00 | 44 | 1014.4 |
| 20260508094403 | 59 | 49 | 0.0 | 2.0 | 0.00 | 0.00 | 0.00 | 44 | 1014.3 |
| 20260508093903 | 59 | 49 | 0.0 | 0.0 | 0.00 | 0.00 | 0.00 | 44 | 1014.3 |
| 20260508093400 | 60 | 49 | 0.0 | 0.0 | 0.00 | 0.00 | 0.00 | 43 | 1014.3 |
| 20260508092855 | 60 | 49 | 0.0 | 0.0 | 0.00 | 0.00 | 0.00 | 43 | 1014.4 |
| 20260508092348 | 60 | 49 | 0.0 | 0.0 | 0.00 | 0.00 | 0.00 | 43 | 1014.4 |
| 20260508091844 | 60 | 49 | 0.0 | 2.0 | 0.00 | 0.00 | 0.00 | 42 | 1014.4 |
| 20260508091342 | 60 | 49 | 0.0 | 2.0 | 0.00 | 0.00 | 0.00 | 42 | 1014.5 |
| 20260508090842 | 60 | 49 | 0.0 | 2.0 | 0.00 | 0.00 | 0.00 | 42 | 1014.6 |
| 20260508090342 | 61 | 91 | 0.0 | 1.0 | 0.00 | 0.00 | 0.00 | 42 | 1014.7 |
| 20260508085844 | 61 | 91 | 0.0 | 1.0 | 0.00 | 0.00 | 0.00 | 41 | 1015.0 |
| 20260508085342 | 61 | 91 | 0.0 | 0.0 | 0.00 | 0.00 | 0.00 | 40 | 1015.0 |
| 20260508084842 | 62 | 91 | 0.0 | 0.0 | 0.00 | 0.00 | 0.00 | 40 | 1015.1 |
| 20260508084341 | 62 | 91 | 0.0 | 2.0 | 0.00 | 0.00 | 0.00 | 39 | 1015.0 |
| 20260508083841 | 62 | 91 | 1.0 | 3.0 | 0.00 | 0.00 | 0.00 | 39 | 1015.0 |
| 20260508083341 | 63 | 90 | 1.0 | 3.0 | 0.00 | 0.00 | 0.00 | 39 | 1015.1 |
| 20260508082842 | 64 | 85 | 0.0 | 3.0 | 0.00 | 0.00 | 0.00 | 38 | 1015.1 |
| 20260508082342 | 64 | 175 | 0.0 | 0.0 | 0.00 | 0.00 | 0.00 | 38 | 1015.1 |
| 20260508081841 | 64 | 175 | 0.0 | 0.0 | 0.00 | 0.00 | 0.00 | 37 | 1015.1 |
| 20260508081342 | 65 | 175 | 0.0 | 0.0 | 0.00 | 0.00 | 0.00 | 36 | 1015.1 |
| 20260508080842 | 65 | 175 | 0.0 | 0.0 | 0.00 | 0.00 | 0.00 | 35 | 1015.2 |
| 20260508080602 | 66 | 175 | 1.0 | 2.0 | 0.00 | 0.00 | 0.00 | 35 | 1015.4 |
| 20260508075839 | 66 | 175 | 1.0 | 4.0 | 0.00 | 0.00 | 0.00 | 35 | 1015.4 |
| 20260508075340 | 66 | 175 | 2.0 | 5.0 | 0.00 | 0.00 | 0.00 | 35 | 1015.5 |
| 20260508074839 | 66 | 163 | 2.0 | 5.0 | 0.00 | 0.00 | 0.00 | 35 | 1015.6 |
| 20260508074336 | 66 | 172 | 2.0 | 4.0 | 0.00 | 0.00 | 0.00 | 35 | 1015.6 |
| 20260508073836 | 66 | 198 | 2.0 | 5.0 | 0.00 | 0.00 | 0.00 | 35 | 1015.6 |
| 20260508073335 | 66 | 153 | 2.0 | 5.0 | 0.00 | 0.00 | 0.00 | 35 | 1015.6 |
| 20260508073313 | 66 | 217 | 2.0 | 5.0 | 0.00 | 0.00 | 0.00 | 35 | 1015.8 |
| 20260508072336 | 66 | 183 | 3.0 | 5.0 | 0.00 | 0.00 | 0.00 | 35 | 1015.9 |
| 20260508071833 | 67 | 205 | 4.0 | 6.0 | 0.00 | 0.00 | 0.00 | 35 | 1015.8 |
| 20260508071336 | 67 | 234 | 4.0 | 6.0 | 0.00 | 0.00 | 0.00 | 34 | 1015.9 |
| 20260508070835 | 67 | 221 | 4.0 | 8.0 | 0.00 | 0.00 | 0.00 | 34 | 1015.9 |
| 20260508070333 | 67 | 219 | 5.0 | 12.0 | 0.00 | 0.00 | 0.00 | 34 | 1015.9 |
| 20260508070055 | 67 | 189 | 6.0 | 12.0 | 0.00 | 0.00 | 0.00 | 35 | 1015.9 |
| 20260508065554 | 67 | 188 | 6.0 | 12.0 | 0.00 | 0.00 | 0.00 | 34 | 1015.9 |
| 20260508064834 | 67 | 198 | 5.0 | 9.0 | 0.00 | 0.00 | 0.00 | 32 | 1015.8 |
| 20260508064334 | 67 | 221 | 4.0 | 7.0 | 0.00 | 0.00 | 0.00 | 31 | 1015.8 |
| 20260508063834 | 67 | 195 | 5.0 | 8.0 | 0.00 | 0.00 | 0.00 | 31 | 1015.6 |
| 20260508063334 | 67 | 226 | 5.0 | 8.0 | 0.00 | 0.00 | 0.00 | 29 | 1015.6 |
| 20260508062837 | 67 | 215 | 3.0 | 6.0 | 0.00 | 0.00 | 0.00 | 28 | 1015.5 |
| 20260508062337 | 67 | 219 | 3.0 | 5.0 | 0.00 | 0.00 | 0.00 | 27 | 1015.6 |
| 20260508061834 | 66 | 247 | 2.0 | 4.0 | 0.00 | 0.00 | 0.00 | 29 | 1015.9 |
| 20260508061557 | 66 | 252 | 2.0 | 3.0 | 0.00 | 0.00 | 0.00 | 30 | 1016.0 |
| 20260508060835 | 67 | 257 | 1.0 | 2.0 | 0.00 | 0.00 | 0.00 | 31 | 1016.1 |
| 20260508060337 | 67 | 217 | 0.0 | 2.0 | 0.00 | 0.00 | 0.00 | 31 | 1016.0 |
| 20260508055834 | 67 | 114 | 0.0 | 1.0 | 0.00 | 0.00 | 0.00 | 31 | 1015.9 |
| 20260508055334 | 67 | 111 | 0.0 | 2.0 | 0.00 | 0.00 | 0.00 | 30 | 1015.9 |
| 20260508055055 | 67 | 111 | 1.0 | 4.0 | 0.00 | 0.00 | 0.00 | 30 | 1015.9 |
| 20260508054600 | 67 | 138 | 2.0 | 4.0 | 0.00 | 0.00 | 0.00 | 31 | 1016.1 |
| 20260508053833 | 68 | 182 | 2.0 | 6.0 | 0.00 | 0.00 | 0.00 | 30 | 1016.2 |
| 20260508053333 | 68 | 182 | 3.0 | 7.0 | 0.00 | 0.00 | 0.00 | 29 | 1016.2 |
| 20260508052833 | 68 | 186 | 3.0 | 7.0 | 0.00 | 0.00 | 0.00 | 26 | 1016.2 |
| 20260508052334 | 68 | 155 | 3.0 | 7.0 | 0.00 | 0.00 | 0.00 | 26 | 1016.2 |
| 20260508051834 | 68 | 136 | 2.0 | 7.0 | 0.00 | 0.00 | 0.00 | 26 | 1016.1 |
| 20260508051333 | 68 | 168 | 0.0 | 7.0 | 0.00 | 0.00 | 0.00 | 24 | 1016.0 |
| 20260508050834 | 68 | 74 | 0.0 | 1.0 | 0.00 | 0.00 | 0.00 | 22 | 1016.0 |
| 20260508050333 | 68 | 32 | 0.0 | 2.0 | 0.00 | 0.00 | 0.00 | 22 | 1016.0 |
| 20260508045834 | 68 | 32 | 0.0 | 2.0 | 0.00 | 0.00 | 0.00 | 22 | 1015.9 |
| 20260508045337 | 68 | 5 | 1.0 | 2.0 | 0.00 | 0.00 | 0.00 | 22 | 1015.8 |
| 20260508045329 | 68 | 5 | 0.0 | 2.0 | 0.00 | 0.00 | 0.00 | 22 | 1015.6 |
| 20260508044333 | 68 | 32 | 1.0 | 2.0 | 0.00 | 0.00 | 0.00 | 22 | 1015.6 |
| 20260508043835 | 68 | 32 | 1.0 | 2.0 | 0.00 | 0.00 | 0.00 | 22 | 1015.6 |
| 20260508043334 | 68 | 35 | 1.0 | 2.0 | 0.00 | 0.00 | 0.00 | 22 | 1015.8 |
| 20260508042837 | 68 | 35 | 1.0 | 2.0 | 0.00 | 0.00 | 0.00 | 22 | 1015.6 |
| 20260508042333 | 68 | 36 | 1.0 | 3.0 | 0.00 | 0.00 | 0.00 | 21 | 1015.6 |
| 20260508041833 | 69 | 40 | 2.0 | 6.0 | 0.00 | 0.00 | 0.00 | 21 | 1015.8 |
| 20260508041333 | 69 | 66 | 3.0 | 9.0 | 0.00 | 0.00 | 0.00 | 21 | 1015.8 |
| 20260508040833 | 70 | 69 | 2.0 | 9.0 | 0.00 | 0.00 | 0.00 | 20 | 1015.8 |
| 20260508040333 | 71 | 77 | 1.0 | 4.0 | 0.00 | 0.00 | 0.00 | 19 | 1015.5 |
| 20260508035834 | 71 | 343 | 1.0 | 3.0 | 0.00 | 0.00 | 0.00 | 18 | 1015.4 |
| 20260508035333 | 72 | 339 | 2.0 | 4.0 | 0.00 | 0.00 | 0.00 | 18 | 1015.3 |
| 20260508034833 | 72 | 338 | 2.0 | 4.0 | 0.00 | 0.00 | 0.00 | 18 | 1015.2 |
| 20260508034337 | 72 | 321 | 2.0 | 4.0 | 0.00 | 0.00 | 0.00 | 18 | 1015.2 |
| 20260508033833 | 72 | 319 | 2.0 | 4.0 | 0.00 | 0.00 | 0.00 | 18 | 1015.1 |
| 20260508033333 | 72 | 323 | 2.0 | 4.0 | 0.00 | 0.00 | 0.00 | 18 | 1015.0 |
| 20260508032834 | 72 | 328 | 2.0 | 4.0 | 0.00 | 0.00 | 0.00 | 18 | 1014.9 |
| 20260508032333 | 72 | 329 | 1.0 | 3.0 | 0.00 | 0.00 | 0.00 | 19 | 1014.9 |
| 20260508031836 | 73 | 341 | 1.0 | 3.0 | 0.00 | 0.00 | 0.00 | 19 | 1014.7 |
| 20260508031813 | 73 | 338 | 2.0 | 4.0 | 0.00 | 0.00 | 0.00 | 18 | 1014.6 |
| 20260508030837 | 73 | 338 | 2.0 | 4.0 | 0.00 | 0.00 | 0.00 | 18 | 1014.7 |
| 20260508030335 | 73 | 334 | 1.0 | 3.0 | 0.00 | 0.00 | 0.00 | 18 | 1014.7 |
| 20260508030058 | 74 | 333 | 0.0 | 3.0 | 0.00 | 0.00 | 0.00 | 18 | 1014.7 |
| 20260508025334 | 74 | 333 | 1.0 | 3.0 | 0.00 | 0.00 | 0.00 | 18 | 1014.7 |
| 20260508024834 | 74 | 333 | 2.0 | 3.0 | 0.00 | 0.00 | 0.00 | 17 | 1014.7 |
| 20260508024333 | 74 | 329 | 1.0 | 3.0 | 0.00 | 0.00 | 0.00 | 17 | 1014.6 |
| 20260508023833 | 75 | 321 | 0.0 | 3.0 | 0.00 | 0.00 | 0.00 | 17 | 1014.5 |
| 20260508023338 | 75 | 57 | 0.0 | 1.0 | 0.00 | 0.00 | 0.00 | 16 | 1014.4 |
| 20260508022834 | 76 | 57 | 0.0 | 2.0 | 0.00 | 0.00 | 0.00 | 16 | 1014.4 |
| 20260508022551 | 76 | 57 | 1.0 | 3.0 | 0.00 | 0.00 | 0.00 | 16 | 1014.2 |
| 20260508021834 | 76 | 58 | 1.0 | 3.0 | 0.00 | 0.00 | 0.00 | 16 | 1014.2 |
| 20260508021333 | 76 | 66 | 1.0 | 3.0 | 0.00 | 0.00 | 0.00 | 16 | 1014.2 |
| 20260508020827 | 76 | 71 | 1.0 | 3.0 | 0.00 | 0.00 | 0.00 | 16 | 1014.3 |
| 20260508020321 | 77 | 64 | 1.0 | 3.0 | 0.00 | 0.00 | 0.00 | 15 | 1014.3 |
| 20260508020305 | 77 | 78 | 1.0 | 3.0 | 0.00 | 0.00 | 0.00 | 15 | 1014.1 |
| 20260508015312 | 77 | 94 | 1.0 | 3.0 | 0.00 | 0.00 | 0.00 | 14 | 1014.2 |
| 20260508014808 | 78 | 126 | 1.0 | 3.0 | 0.00 | 0.00 | 0.00 | 14 | 1014.2 |
| 20260508014308 | 78 | 150 | 1.0 | 3.0 | 0.00 | 0.00 | 0.00 | 14 | 1014.2 |
| 20260508013808 | 78 | 151 | 2.0 | 6.0 | 0.00 | 0.00 | 0.00 | 14 | 1014.1 |
| 20260508013309 | 78 | 153 | 2.0 | 6.0 | 0.00 | 0.00 | 0.00 | 13 | 1014.1 |
| 20260508012808 | 79 | 130 | 1.0 | 4.0 | 0.00 | 0.00 | 0.00 | 13 | 1014.0 |
| 20260508012308 | 79 | 96 | 1.0 | 3.0 | 0.00 | 0.00 | 0.00 | 13 | 1014.1 |
| 20260508012027 | 80 | 105 | 1.0 | 3.0 | 0.00 | 0.00 | 0.00 | 12 | 1014.0 |
| 20260508011306 | 80 | 105 | 1.0 | 5.0 | 0.00 | 0.00 | 0.00 | 12 | 1013.8 |
| 20260508011027 | 80 | 153 | 1.0 | 5.0 | 0.00 | 0.00 | 0.00 | 12 | 1014.0 |
| 20260508010305 | 81 | 78 | 1.0 | 4.0 | 0.00 | 0.00 | 0.00 | 12 | 1014.0 |
| 20260508005806 | 81 | 236 | 2.0 | 3.0 | 0.00 | 0.00 | 0.00 | 12 | 1014.0 |
| 20260508005306 | 81 | 236 | 1.0 | 4.0 | 0.00 | 0.00 | 0.00 | 11 | 1014.1 |
| 20260508004806 | 81 | 236 | 2.0 | 5.0 | 0.00 | 0.00 | 0.00 | 12 | 1014.1 |
| 20260508004309 | 80 | 213 | 2.0 | 5.0 | 0.00 | 0.00 | 0.00 | 11 | 1014.1 |
| 20260508003806 | 81 | 219 | 3.0 | 7.0 | 0.00 | 0.00 | 0.00 | 11 | 1014.1 |
| 20260508003308 | 81 | 180 | 4.0 | 8.0 | 0.00 | 0.00 | 0.00 | 11 | 1014.1 |
| 20260508002805 | 81 | 163 | 3.0 | 8.0 | 0.00 | 0.00 | 0.00 | 11 | 1014.2 |
| 20260508002307 | 81 | 186 | 1.0 | 5.0 | 0.00 | 0.00 | 0.00 | 11 | 1014.0 |
| 20260508001805 | 81 | 140 | 3.0 | 12.0 | 0.00 | 0.00 | 0.00 | 11 | 1014.1 |
| 20260508001529 | 81 | 223 | 5.0 | 12.0 | 0.00 | 0.00 | 0.00 | 11 | 1014.2 |
| 20260508000806 | 81 | 192 | 5.0 | 9.0 | 0.00 | 0.00 | 0.00 | 11 | 1014.1 |
| 20260508000306 | 81 | 227 | 5.0 | 9.0 | 0.00 | 0.00 | 0.00 | 11 | 1014.1 |
| 20260507235806 | 81 | 82 | 3.0 | 8.0 | 0.00 | 0.00 | 0.00 | 12 | 1014.2 |
| 20260507235307 | 82 | 72 | 2.0 | 6.0 | 0.00 | 0.00 | 0.00 | 13 | 1014.3 |
| 20260507234806 | 81 | 199 | 4.0 | 8.0 | 0.00 | 0.00 | 0.00 | 12 | 1014.4 |
| 20260507234319 | 81 | 157 | 5.0 | 9.0 | 0.00 | 0.00 | 0.00 | 13 | 1014.4 |
| 20260507233805 | 81 | 90 | 4.0 | 9.0 | 0.00 | 0.00 | 0.00 | 13 | 1014.5 |
| 20260507233307 | 82 | 116 | 3.0 | 8.0 | 0.00 | 0.00 | 0.00 | 13 | 1014.6 |
| 20260507233023 | 82 | 116 | 3.0 | 7.0 | 0.00 | 0.00 | 0.00 | 13 | 1014.7 |
| 20260507232307 | 82 | 158 | 2.0 | 7.0 | 0.00 | 0.00 | 0.00 | 13 | 1014.7 |
| 20260507231806 | 82 | 163 | 3.0 | 7.0 | 0.00 | 0.00 | 0.00 | 13 | 1014.7 |
| 20260507231305 | 82 | 216 | 4.0 | 11.0 | 0.00 | 0.00 | 0.00 | 13 | 1014.7 |
| 20260507230805 | 82 | 232 | 5.0 | 15.0 | 0.00 | 0.00 | 0.00 | 13 | 1014.9 |
| 20260507230306 | 82 | 292 | 7.0 | 15.0 | 0.00 | 0.00 | 0.00 | 14 | 1014.9 |
| 20260507225807 | 81 | 265 | 7.0 | 15.0 | 0.00 | 0.00 | 0.00 | 14 | 1014.9 |
| 20260507225307 | 81 | 239 | 5.0 | 15.0 | 0.00 | 0.00 | 0.00 | 14 | 1014.9 |
| 20260507224807 | 81 | 237 | 3.0 | 9.0 | 0.00 | 0.00 | 0.00 | 14 | 1014.9 |
| 20260507224306 | 81 | 97 | 6.0 | 15.0 | 0.00 | 0.00 | 0.00 | 14 | 1015.0 |
| 20260507223808 | 81 | 157 | 9.0 | 15.0 | 0.00 | 0.00 | 0.00 | 14 | 1015.0 |
| 20260507223306 | 81 | 134 | 9.0 | 17.0 | 0.00 | 0.00 | 0.00 | 14 | 1015.0 |
| 20260507222805 | 82 | 198 | 6.0 | 17.0 | 0.00 | 0.00 | 0.00 | 14 | 1015.0 |
| 20260507222306 | 82 | 143 | 3.0 | 11.0 | 0.00 | 0.00 | 0.00 | 14 | 1014.9 |
| 20260507221805 | 81 | 94 | 2.0 | 5.0 | 0.00 | 0.00 | 0.00 | 14 | 1015.0 |
| 20260507221306 | 81 | 149 | 2.0 | 10.0 | 0.00 | 0.00 | 0.00 | 14 | 1015.0 |
| 20260507221022 | 81 | 162 | 5.0 | 14.0 | 0.00 | 0.00 | 0.00 | 14 | 1015.1 |
| 20260507220255 | 81 | 246 | 6.0 | 14.0 | 0.00 | 0.00 | 0.00 | 14 | 1015.2 |
| 20260507220241 | 81 | 115 | 4.0 | 9.0 | 0.00 | 0.00 | 0.00 | 15 | 1015.2 |
| 20260507215244 | 81 | 131 | 5.0 | 13.0 | 0.00 | 0.00 | 0.00 | 15 | 1015.2 |
| 20260507214747 | 81 | 142 | 6.0 | 13.0 | 0.00 | 0.00 | 0.00 | 15 | 1015.3 |
| 20260507214506 | 80 | 105 | 6.0 | 12.0 | 0.00 | 0.00 | 0.00 | 15 | 1015.4 |
| 20260507214012 | 80 | 133 | 5.0 | 12.0 | 0.00 | 0.00 | 0.00 | 15 | 1015.4 |
| 20260507213245 | 80 | 114 | 4.0 | 8.0 | 0.00 | 0.00 | 0.00 | 15 | 1015.4 |
| 20260507212745 | 80 | 113 | 4.0 | 9.0 | 0.00 | 0.00 | 0.00 | 15 | 1015.5 |
| 20260507212727 | 80 | 123 | 3.0 | 9.0 | 0.00 | 0.00 | 0.00 | 15 | 1015.5 |
| 20260507211743 | 80 | 128 | 5.0 | 12.0 | 0.00 | 0.00 | 0.00 | 15 | 1015.5 |
| 20260507211726 | 80 | 112 | 5.0 | 14.0 | 0.00 | 0.00 | 0.00 | 14 | 1015.6 |
| 20260507210742 | 80 | 138 | 3.0 | 14.0 | 0.00 | 0.00 | 0.00 | 15 | 1015.8 |
| 20260507210240 | 79 | 292 | 2.0 | 4.0 | 0.00 | 0.00 | 0.00 | 15 | 1015.8 |
| 20260507205739 | 79 | 346 | 3.0 | 8.0 | 0.00 | 0.00 | 0.00 | 15 | 1015.9 |
| 20260507205236 | 79 | 22 | 4.0 | 11.0 | 0.00 | 0.00 | 0.00 | 16 | 1016.1 |
| 20260507204735 | 79 | 72 | 4.0 | 11.0 | 0.00 | 0.00 | 0.00 | 16 | 1016.2 |
| 20260507204234 | 79 | 322 | 4.0 | 9.0 | 0.00 | 0.00 | 0.00 | 16 | 1016.1 |
| 20260507203735 | 80 | 88 | 4.0 | 9.0 | 0.00 | 0.00 | 0.00 | 16 | 1016.2 |
| 20260507203454 | 79 | 153 | 3.0 | 9.0 | 0.00 | 0.00 | 0.00 | 16 | 1016.2 |
| 20260507202734 | 78 | 150 | 6.0 | 14.0 | 0.00 | 0.00 | 0.00 | 16 | 1016.4 |
| 20260507202234 | 78 | 238 | 7.0 | 14.0 | 0.00 | 0.00 | 0.00 | 17 | 1016.5 |
| 20260507201734 | 79 | 110 | 5.0 | 13.0 | 0.00 | 0.00 | 0.00 | 17 | 1016.7 |
| 20260507201238 | 79 | 144 | 4.0 | 11.0 | 0.00 | 0.00 | 0.00 | 17 | 1016.9 |
| 20260507200736 | 79 | 167 | 5.0 | 11.0 | 0.00 | 0.00 | 0.00 | 16 | 1017.0 |
| 20260507200234 | 79 | 165 | 6.0 | 11.0 | 0.00 | 0.00 | 0.00 | 16 | 1017.0 |
| 20260507195734 | 78 | 124 | 4.0 | 10.0 | 0.00 | 0.00 | 0.00 | 16 | 1017.0 |
| 20260507195237 | 78 | 132 | 4.0 | 11.0 | 0.00 | 0.00 | 0.00 | 17 | 1017.1 |
| 20260507194733 | 78 | 127 | 4.0 | 11.0 | 0.00 | 0.00 | 0.00 | 16 | 1017.1 |
| 20260507194237 | 79 | 79 | 2.0 | 10.0 | 0.00 | 0.00 | 0.00 | 17 | 1017.3 |
| 20260507193733 | 78 | 188 | 3.0 | 7.0 | 0.00 | 0.00 | 0.00 | 17 | 1017.3 |
| 20260507193234 | 78 | 228 | 3.0 | 10.0 | 0.00 | 0.00 | 0.00 | 17 | 1017.4 |
| 20260507192734 | 77 | 134 | 3.0 | 10.0 | 0.00 | 0.00 | 0.00 | 17 | 1017.4 |
| 20260507192234 | 77 | 132 | 4.0 | 10.0 | 0.00 | 0.00 | 0.00 | 18 | 1017.7 |
| 20260507191733 | 76 | 138 | 4.0 | 10.0 | 0.00 | 0.00 | 0.00 | 19 | 1017.7 |
| 20260507191457 | 76 | 355 | 4.0 | 8.0 | 0.00 | 0.00 | 0.00 | 20 | 1017.7 |
| 20260507190734 | 76 | 28 | 4.0 | 8.0 | 0.00 | 0.00 | 0.00 | 19 | 1017.9 |
| 20260507190234 | 76 | 102 | 4.0 | 10.0 | 0.00 | 0.00 | 0.00 | 19 | 1018.0 |
| 20260507185736 | 76 | 101 | 3.0 | 10.0 | 0.00 | 0.00 | 0.00 | 19 | 1018.1 |
| 20260507185458 | 76 | 69 | 3.0 | 6.0 | 0.00 | 0.00 | 0.00 | 20 | 1018.1 |
| 20260507184733 | 75 | 273 | 4.0 | 10.0 | 0.00 | 0.00 | 0.00 | 21 | 1018.1 |
| 20260507184236 | 75 | 218 | 3.0 | 10.0 | 0.00 | 0.00 | 0.00 | 21 | 1018.3 |
| 20260507183735 | 75 | 94 | 1.0 | 7.0 | 0.00 | 0.00 | 0.00 | 22 | 1018.3 |
| 20260507183452 | 74 | 80 | 2.0 | 8.0 | 0.00 | 0.00 | 0.00 | 22 | 1018.2 |
| 20260507182737 | 74 | 269 | 3.0 | 8.0 | 0.00 | 0.00 | 0.00 | 23 | 1018.3 |
| 20260507182232 | 74 | 327 | 3.0 | 7.0 | 0.00 | 0.00 | 0.00 | 22 | 1018.3 |
| 20260507181733 | 74 | 304 | 3.0 | 9.0 | 0.00 | 0.00 | 0.00 | 22 | 1018.4 |
| 20260507181714 | 74 | 40 | 2.0 | 9.0 | 0.00 | 0.00 | 0.00 | 22 | 1018.4 |
| 20260507180736 | 74 | 355 | 2.0 | 7.0 | 0.00 | 0.00 | 0.00 | 22 | 1018.7 |
| 20260507180233 | 73 | 181 | 2.0 | 7.0 | 0.00 | 0.00 | 0.00 | 22 | 1018.6 |
| 20260507175733 | 72 | 24 | 2.0 | 8.0 | 0.00 | 0.00 | 0.00 | 23 | 1018.7 |
| 20260507175233 | 72 | 198 | 3.0 | 9.0 | 0.00 | 0.00 | 0.00 | 23 | 1018.7 |
| 20260507174733 | 72 | 96 | 4.0 | 9.0 | 0.00 | 0.00 | 0.00 | 24 | 1018.8 |
| 20260507174234 | 72 | 130 | 4.0 | 8.0 | 0.00 | 0.00 | 0.00 | 23 | 1018.9 |
| 20260507173955 | 72 | 66 | 3.0 | 10.0 | 0.00 | 0.00 | 0.00 | 24 | 1019.0 |
| 20260507173233 | 71 | 44 | 3.0 | 10.0 | 0.00 | 0.00 | 0.00 | 24 | 1019.0 |
| 20260507172725 | 71 | 88 | 3.0 | 10.0 | 0.00 | 0.00 | 0.00 | 24 | 1019.1 |
| 20260507172222 | 71 | 284 | 3.0 | 8.0 | 0.00 | 0.00 | 0.00 | 26 | 1019.1 |
| 20260507171930 | 71 | 342 | 3.0 | 8.0 | 0.00 | 0.00 | 0.00 | 27 | 1019.3 |
| 20260507171921 | 71 | 0 | 3.0 | 8.0 | 0.00 | 0.00 | 0.00 | 27 | 1019.2 |
| 20260507170722 | 70 | 120 | 3.0 | 8.0 | 0.00 | 0.00 | 0.00 | 27 | 1019.3 |
| 20260507170222 | 69 | 139 | 3.0 | 7.0 | 0.00 | 0.00 | 0.00 | 29 | 1019.5 |
| 20260507165722 | 69 | 17 | 3.0 | 8.0 | 0.00 | 0.00 | 0.00 | 30 | 1019.5 |
| 20260507165225 | 68 | 5 | 3.0 | 8.0 | 0.00 | 0.00 | 0.00 | 31 | 1019.6 |
| 20260507164720 | 68 | 37 | 3.0 | 8.0 | 0.00 | 0.00 | 0.00 | 31 | 1019.7 |
| 20260507164221 | 68 | 11 | 3.0 | 9.0 | 0.00 | 0.00 | 0.00 | 30 | 1019.7 |
| 20260507163720 | 68 | 132 | 3.0 | 9.0 | 0.00 | 0.00 | 0.00 | 31 | 1019.8 |
| 20260507163223 | 67 | 59 | 3.0 | 10.0 | 0.00 | 0.00 | 0.00 | 31 | 1019.9 |
| 20260507162721 | 67 | 119 | 3.0 | 10.0 | 0.00 | 0.00 | 0.00 | 30 | 1019.8 |
| 20260507162221 | 66 | 309 | 3.0 | 8.0 | 0.00 | 0.00 | 0.00 | 32 | 1019.9 |
| 20260507161723 | 66 | 317 | 3.0 | 8.0 | 0.00 | 0.00 | 0.00 | 31 | 1019.9 |
| 20260507161216 | 66 | 325 | 4.0 | 10.0 | 0.00 | 0.00 | 0.00 | 32 | 1020.0 |
| 20260507160718 | 66 | 64 | 3.0 | 10.0 | 0.00 | 0.00 | 0.00 | 32 | 1019.9 |
| 20260507160217 | 65 | 315 | 3.0 | 6.0 | 0.00 | 0.00 | 0.00 | 33 | 1020.1 |
| 20260507155716 | 65 | 355 | 4.0 | 9.0 | 0.00 | 0.00 | 0.00 | 33 | 1020.1 |
| 20260507155216 | 65 | 68 | 4.0 | 9.0 | 0.00 | 0.00 | 0.00 | 33 | 1020.1 |
| 20260507154716 | 64 | 9 | 4.0 | 10.0 | 0.00 | 0.00 | 0.00 | 34 | 1020.2 |
| 20260507154419 | 64 | 5 | 4.0 | 10.0 | 0.00 | 0.00 | 0.00 | 35 | 1020.4 |
| 20260507154413 | 64 | 35 | 4.0 | 10.0 | 0.00 | 0.00 | 0.00 | 35 | 1020.2 |
| 20260507153216 | 63 | 343 | 4.0 | 10.0 | 0.00 | 0.00 | 0.00 | 36 | 1020.4 |
| 20260507152712 | 63 | 334 | 4.0 | 10.0 | 0.00 | 0.00 | 0.00 | 36 | 1020.2 |
| 20260507152215 | 63 | 70 | 4.0 | 13.0 | 0.00 | 0.00 | 0.00 | 36 | 1020.5 |
| 20260507151711 | 62 | 31 | 5.0 | 13.0 | 0.00 | 0.00 | 0.00 | 37 | 1020.5 |
| 20260507151212 | 62 | 22 | 4.0 | 10.0 | 0.00 | 0.00 | 0.00 | 37 | 1020.5 |
| 20260507150712 | 62 | 21 | 4.0 | 8.0 | 0.00 | 0.00 | 0.00 | 38 | 1020.6 |
| 20260507150439 | 61 | 21 | 4.0 | 8.0 | 0.00 | 0.00 | 0.00 | 38 | 1020.6 |
| 20260507145714 | 61 | 341 | 4.0 | 10.0 | 0.00 | 0.00 | 0.00 | 38 | 1020.6 |
| 20260507145214 | 61 | 59 | 5.0 | 10.0 | 0.00 | 0.00 | 0.00 | 38 | 1020.6 |
| 20260507144713 | 60 | 5 | 5.0 | 10.0 | 0.00 | 0.00 | 0.00 | 38 | 1020.6 |
| 20260507144206 | 60 | 24 | 5.0 | 12.0 | 0.00 | 0.00 | 0.00 | 38 | 1020.7 |
| 20260507143706 | 60 | 17 | 6.0 | 12.0 | 0.00 | 0.00 | 0.00 | 38 | 1020.6 |
| 20260507143205 | 60 | 57 | 6.0 | 11.0 | 0.00 | 0.00 | 0.00 | 38 | 1020.6 |
| 20260507142705 | 60 | 41 | 6.0 | 12.0 | 0.00 | 0.00 | 0.00 | 39 | 1020.7 |
| 20260507142208 | 60 | 11 | 4.0 | 12.0 | 0.00 | 0.00 | 0.00 | 39 | 1020.6 |
| 20260507141706 | 59 | 43 | 5.0 | 10.0 | 0.00 | 0.00 | 0.00 | 40 | 1020.7 |
| 20260507141209 | 59 | 21 | 6.0 | 10.0 | 0.00 | 0.00 | 0.00 | 41 | 1020.7 |
| 20260507140923 | 58 | 331 | 5.0 | 10.0 | 0.00 | 0.00 | 0.00 | 41 | 1020.6 |
| 20260507140205 | 58 | 5 | 4.0 | 9.0 | 0.00 | 0.00 | 0.00 | 41 | 1020.6 |
| 20260507135706 | 58 | 11 | 5.0 | 10.0 | 0.00 | 0.00 | 0.00 | 41 | 1020.6 |
| 20260507135218 | 57 | 12 | 5.0 | 10.0 | 0.00 | 0.00 | 0.00 | 41 | 1020.6 |
| 20260507134706 | 57 | 30 | 5.0 | 10.0 | 0.00 | 0.00 | 0.00 | 41 | 1020.6 |
| 20260507134207 | 57 | 5 | 5.0 | 10.0 | 0.00 | 0.00 | 0.00 | 41 | 1020.6 |
| 20260507133932 | 57 | 5 | 6.0 | 13.0 | 0.00 | 0.00 | 0.00 | 40 | 1020.6 |
| 20260507133205 | 56 | 10 | 6.0 | 13.0 | 0.00 | 0.00 | 0.00 | 40 | 1020.5 |
| 20260507132706 | 57 | 13 | 5.0 | 11.0 | 0.00 | 0.00 | 0.00 | 39 | 1020.2 |
| 20260507132206 | 56 | 0 | 5.0 | 11.0 | 0.00 | 0.00 | 0.00 | 39 | 1020.1 |
| 20260507131706 | 56 | 15 | 5.0 | 11.0 | 0.00 | 0.00 | 0.00 | 38 | 1020.0 |
| 20260507131207 | 57 | 26 | 5.0 | 11.0 | 0.00 | 0.00 | 0.00 | 37 | 1020.0 |